Temperature
5 5 5 5 4 4 4 3 2 1 1 1 -0 -0 -0 -2 -4 -5 -5 -6 -7 -8 -9 -9 -10 -10 -10 -10 -10 -10 -10 -9 -9 -9 -8 -8 -7 -7 -6 -6 -5 -5 -4 -4
3 4 4 4 3 3 3 3 2 1 1 1 1 1 -1 -3 -5 -5 -6 -7 -8 -9 -10 -10 -11 -11 -11 -11 -11 -10 -10 -10 -10 -10 -9 -9 -8 -8 -7 -7 -6 -6 -5 -5
1 2 3 2 2 3 3 2 2 0 0 1 -0 -0 -2 -4 -6 -6 -7 -8 -9 -10 -11 -11 -11 -12 -12 -11 -11 -11 -10 -10 -11 -10 -10 -10 -9 -9 -8 -7 -7 -7 -6 -6
0 1 2 2 3 3 2 2 2 1 0 0 -1 -2 -3 -5 -6 -7 -8 -9 -10 -10 -11 -11 -12 -12 -12 -12 -11 -11 -11 -11 -11 -11 -11 -10 -10 -10 -9 -8 -8 -8 -8 -7
-1 -1 -1 2 3 3 2 1 2 0 -0 -1 -3 -2 -4 -5 -6 -8 -9 -9 -10 -11 -11 -12 -12 -12 -12 -12 -12 -12 -12 -12 -12 -12 -11 -11 -11 -10 -10 -9 -9 -8 -8 -8
-1 0 0 2 3 3 1 -0 1 1 -1 -3 -4 -3 -4 -6 -7 -9 -9 -10 -10 -11 -12 -12 -12 -12 -13 -13 -13 -13 -13 -13 -13 -13 -12 -12 -12 -11 -11 -10 -10 -10 -10 -10
-2 -2 -1 1 3 2 -1 -0 2 1 -2 -4 -5 -5 -6 -7 -8 -9 -10 -10 -10 -11 -12 -13 -13 -13 -13 -14 -14 -14 -14 -14 -14 -13 -13 -13 -13 -12 -12 -11 -11 -10 -10 -10
-2 -2 -1 3 2 1 1 2 1 -0 -2 -4 -5 -6 -7 -8 -9 -10 -10 -10 -11 -11 -12 -13 -14 -14 -14 -15 -15 -15 -14 -14 -14 -14 -14 -14 -14 -13 -13 -12 -12 -12 -11 -11
-0 -0 2 3 3 2 2 1 1 -1 -3 -4 -6 -7 -8 -9 -9 -10 -10 -11 -11 -12 -13 -13 -14 -14 -15 -15 -15 -15 -15 -15 -15 -15 -15 -15 -14 -14 -14 -13 -13 -12 -12 -12
-0 -0 2 3 2 2 2 1 -1 -2 -4 -5 -7 -8 -8 -9 -9 -10 -11 -11 -12 -13 -13 -14 -14 -15 -15 -15 -15 -15 -15 -15 -15 -15 -15 -15 -15 -15 -14 -14 -14 -13 -13 -13
-1 1 2 3 2 1 1 -0 -2 -3 -5 -6 -8 -8 -9 -9 -10 -11 -11 -12 -13 -13 -14 -14 -15 -15 -15 -15 -15 -15 -15 -15 -15 -15 -15 -15 -15 -15 -15 -15 -14 -14 -14 -13
-1 1 2 2 1 1 -0 -2 -3 -4 -6 -7 -8 -8 -9 -10 -10 -11 -12 -12 -13 -13 -14 -14 -15 -15 -15 -15 -15 -15 -15 -15 -15 -16 -16 -16 -16 -15 -15 -15 -15 -15 -14 -14
3 2 1 1 1 -0 -2 -3 -4 -5 -7 -8 -8 -9 -9 -10 -10 -11 -12 -12 -13 -13 -14 -14 -14 -14 -14 -14 -15 -15 -15 -15 -15 -15 -16 -16 -16 -15 -15 -15 -15 -15 -15 -15
2 2 1 1 -0 -1 -3 -4 -5 -6 -8 -8 -9 -9 -9 -10 -10 -11 -11 -12 -12 -13 -14 -14 -14 -14 -14 -14 -14 -15 -15 -15 -15 -15 -15 -15 -15 -15 -15 -15 -15 -15 -15 -15
1 1 1 -0 -1 -3 -4 -5 -6 -7 -8 -8 -9 -9 -9 -10 -10 -11 -11 -11 -12 -12 -13 -14 -14 -14 -14 -14 -15 -15 -14 -14 -14 -15 -15 -15 -15 -15 -15 -15 -15 -15 -15 -15
1 1 0 -1 -3 -4 -5 -6 -6 -7 -8 -8 -9 -9 -10 -10 -10 -11 -11 -11 -12 -12 -13 -13 -13 -14 -14 -14 -14 -14 -14 -14 -14 -14 -14 -14 -15 -15 -15 -15 -15 -15 -15 -15
1 0 -0 -2 -3 -4 -5 -6 -7 -7 -8 -8 -9 -9 -9 -10 -10 -10 -10 -11 -11 -12 -12 -13 -13 -13 -14 -14 -14 -14 -13 -14 -14 -14 -14 -15 -15 -15 -15 -15 -15 -15 -15 -15
0 -0 -1 -3 -4 -5 -5 -6 -7 -8 -8 -9 -9 -9 -9 -9 -9 -10 -10 -10 -10 -10 -11 -12 -12 -13 -14 -13 -13 -13 -13 -14 -14 -14 -15 -15 -16 -16 -16 -16 -16 -15 -15 -15
-0 -1 -3 -4 -4 -5 -6 -7 -7 -8 -8 -9 -9 -9 -9 -9 -9 -10 -10 -10 -11 -10 -10 -10 -11 -12 -12 -12 -12 -13 -13 -13 -14 -14 -15 -15 -15 -16 -16 -16 -16 -16 -16 -15
-1 -2 -3 -4 -5 -6 -6 -7 -8 -8 -9 -9 -9 -9 -9 -9 -9 -9 -9 -9 -10 -10 -9 -10 -11 -11 -11 -12 -12 -12 -12 -12 -13 -13 -14 -14 -15 -15 -15 -15 -16 -16 -16 -16
-2 -3 -4 -4 -5 -6 -7 -7 -8 -8 -8 -9 -8 -8 -8 -9 -9 -10 -9 -9 -9 -9 -9 -10 -10 -10 -11 -11 -10 -10 -11 -11 -12 -13 -13 -14 -14 -14 -14 -14 -15 -15 -15 -16
-3 -3 -4 -5 -6 -7 -7 -8 -8 -8 -8 -9 -8 -8 -8 -8 -8 -9 -9 -9 -9 -9 -9 -10 -10 -10 -11 -10 -9 -10 -11 -11 -12 -13 -13 -13 -13 -13 -13 -13 -14 -14 -15 -15
-3 -4 -5 -5 -6 -7 -7 -8 -8 -8 -8 -8 -8 -8 -8 -9 -9 -9 -8 -8 -8 -9 -9 -9 -9 -10 -10 -9 -9 -10 -11 -11 -12 -13 -13 -13 -13 -13 -14 -13 -13 -14 -15 -15
-4 -4 -5 -6 -6 -7 -7 -8 -8 -8 -8 -8 -8 -8 -8 -8 -8 -9 -9 -8 -8 -8 -8 -9 -9 -9 -9 -9 -9 -10 -10 -11 -12 -12 -12 -12 -11 -12 -13 -13 -14 -15 -15 -15
-4 -5 -5 -6 -6 -7 -7 -8 -8 -8 -8 -8 -8 -8 -8 -9 -9 -8 -8 -8 -8 -8 -8 -8 -9 -9 -9 -9 -9 -9 -10 -11 -12 -12 -12 -11 -11 -11 -12 -13 -14 -14 -15 -15
-4 -5 -5 -6 -7 -7 -7 -8 -8 -8 -8 -8 -8 -8 -8 -9 -8 -8 -8 -8 -7 -8 -8 -8 -8 -9 -9 -9 -9 -9 -10 -10 -11 -11 -12 -12 -11 -11 -11 -12 -12 -13 -14 -14
-5 -5 -6 -6 -7 -7 -7 -8 -8 -8 -8 -8 -8 -8 -8 -8 -8 -8 -7 -7 -7 -7 -7 -8 -8 -9 -9 -9 -9 -9 -9 -10 -10 -11 -11 -11 -12 -12 -12 -12 -12 -12 -12 -13
Wind_Speed
5 4 3 3 4 4 4 2 2 7 8 8 9 9 11 9 9 12 14 16 17 17 17 17 17 17 17 15 15 16 16 15 14 14 15 16 17 18 18 17 17 17 17 16
6 6 5 5 6 5 4 2 5 7 8 7 9 8 11 7 12 15 15 16 17 17 18 17 16 17 16 14 15 16 16 15 14 14 15 15 15 15 16 16 14 14 15 15
4 7 4 3 3 2 2 4 4 5 7 10 11 13 12 8 12 15 15 14 15 15 15 15 13 14 14 15 14 15 15 16 15 15 15 15 16 16 14 15 13 10 11 12
2 6 0 4 3 3 5 7 3 6 9 10 10 13 2 6 10 12 12 12 11 11 12 11 10 12 12 12 13 14 14 15 15 15 15 15 15 15 14 11 12 9 8 9
3 3 6 4 4 5 5 6 2 6 10 9 10 7 2 6 9 10 9 8 7 8 9 10 11 12 11 12 13 14 15 15 15 14 14 14 15 15 13 11 10 10 8 7
3 1 5 5 6 5 0 5 6 6 7 8 10 10 4 8 9 9 8 8 9 9 8 9 11 12 11 12 13 15 15 15 14 14 13 12 14 13 12 11 12 11 9 8
4 5 7 6 6 2 3 6 9 4 3 4 5 6 9 9 8 8 8 8 9 9 8 8 11 12 11 11 13 15 15 15 15 14 13 11 12 12 12 11 11 11 11 11
5 4 7 5 1 2 6 6 5 3 2 5 7 7 8 9 9 9 9 9 9 9 9 8 10 12 12 12 14 15 15 15 15 14 13 13 12 12 11 11 11 9 9 9
8 8 5 4 5 5 4 4 1 1 2 4 5 6 8 9 8 8 8 9 9 9 9 8 10 11 11 12 14 15 14 14 13 14 12 12 11 11 10 10 10 8 7 8
4 6 5 4 3 2 1 2 3 2 1 0 2 4 6 8 9 9 9 9 9 9 10 9 10 12 10 12 14 14 13 12 11 10 11 11 11 11 10 10 11 11 10 10
4 6 4 3 3 2 5 5 4 2 2 2 2 4 4 5 7 8 10 10 10 9 10 11 11 11 12 12 12 11 11 11 10 10 9 8 9 9 11 8 13 12 9 8
7 6 4 4 2 3 5 4 3 2 3 4 4 3 4 5 6 7 8 9 11 11 12 11 11 12 11 12 11 10 12 11 9 7 7 8 6 8 13 15 19 19 18 15
5 4 5 1 4 4 5 4 4 4 5 3 3 4 5 5 7 8 9 11 11 11 12 11 12 12 12 12 13 11 10 12 9 9 7 8 8 7 8 11 16 17 18 19
3 4 3 2 3 5 5 5 7 7 6 4 4 4 4 5 5 7 8 9 10 11 11 12 12 12 12 12 13 12 11 13 13 8 7 6 6 7 7 7 7 7 12 17
5 5 5 5 6 5 5 5 6 5 3 4 4 4 5 6 6 7 8 9 10 11 11 12 13 13 13 13 14 13 12 10 11 9 7 6 7 7 6 6 6 6 6 8
5 6 7 5 5 5 4 4 5 3 3 3 4 5 5 5 6 7 7 9 10 12 12 13 13 15 15 14 14 13 11 20 19 12 8 8 8 7 7 7 7 6 6 6
4 2 3 3 5 4 4 4 5 4 4 3 4 5 6 6 7 8 10 10 10 11 12 12 14 17 16 15 14 12 12 16 23 16 11 11 10 9 9 8 8 7 7 9
5 4 4 4 5 7 6 6 6 5 3 2 3 5 6 7 9 11 12 12 12 12 11 11 14 17 13 14 14 13 14 14 13 12 12 12 12 11 10 9 9 10 8 10
7 7 7 6 7 8 7 5 5 4 3 3 3 4 5 7 8 10 11 12 12 13 12 14 24 17 15 20 22 13 14 14 14 14 13 16 15 11 10 11 11 10 9 9
8 8 8 7 7 6 6 6 6 4 2 2 3 5 7 8 9 10 11 10 8 9 14 18 16 13 15 18 22 13 14 15 15 14 14 13 13 12 11 11 11 10 10 9
9 8 8 8 7 7 7 7 6 4 2 2 3 4 6 8 9 9 10 12 11 13 17 22 16 14 16 19 20 13 14 14 15 14 14 14 14 14 12 11 11 10 10 9
8 8 8 8 8 7 5 5 5 4 2 2 3 5 6 8 10 10 9 8 12 22 17 12 12 19 26 23 14 14 15 15 15 15 15 15 15 14 13 11 9 8 8 7
8 8 9 9 8 7 6 4 4 3 1 2 4 5 6 7 7 8 11 10 12 21 16 11 21 29 29 17 14 15 16 16 16 16 16 16 16 16 15 12 6 3 3 3
8 9 8 8 8 7 6 4 3 2 2 4 4 5 5 6 7 5 8 17 22 22 13 18 27 29 25 14 14 15 15 16 16 15 15 15 14 15 15 14 10 6 4 3
9 8 8 9 8 6 6 5 3 2 3 3 4 4 4 4 5 10 11 12 19 19 13 18 26 26 17 13 15 16 16 16 17 14 14 14 13 13 13 13 11 9 7 6
8 8 8 7 6 6 5 5 3 3 1 1 3 3 4 4 6 7 8 10 12 17 13 10 14 16 13 14 15 16 16 17 15 11 12 12 11 11 11 11 11 8 7 6
8 7 6 5 5 6 5 5 4 3 2 0 2 3 5 6 7 9 10 10 11 11 11 10 12 12 11 13 14 15 15 16 15 10 9 9 8 8 9 9 7 6 5 5
Wind_Direction
288 332 331 321 5 36 58 56 263 287 295 298 316 311 314 325 341 345 349 352 353 352 350 347 347 345 342 339 339 340 339 338 338 340 342 343 346 348 352 359 4 8 18 26
323 11 20 56 31 50 57 21 299 301 297 286 300 302 324 348 350 349 349 350 351 351 348 345 345 342 339 338 341 342 342 340 339 342 345 345 344 348 351 355 2 10 16 19
291 324 62 19 348 44 315 276 280 291 285 302 313 320 328 353 353 348 345 349 350 349 344 341 341 338 337 340 341 344 344 342 341 342 345 347 349 349 349 351 354 7 14 15
303 19 110 240 221 213 267 270 267 281 284 288 296 302 4 28 356 346 346 349 347 342 335 332 332 333 334 338 342 343 344 345 343 344 344 346 349 349 345 346 352 356 11 11
82 346 285 274 268 272 283 282 232 280 292 308 317 299 158 26 1 345 350 353 343 336 327 331 332 330 334 341 345 345 345 343 341 342 343 349 351 348 346 346 351 354 6 8
105 285 264 230 256 284 304 288 263 275 300 319 333 337 321 5 356 351 6 2 352 340 334 339 338 335 336 343 347 346 343 340 338 340 340 348 350 347 348 351 355 359 11 11
170 229 264 249 273 43 73 283 291 293 298 313 312 295 321 349 353 2 11 358 348 338 331 329 334 340 341 343 344 341 340 340 342 342 341 351 349 347 346 352 355 2 8 10
166 212 261 242 224 169 242 261 274 275 284 289 293 312 335 345 350 359 356 351 347 341 334 330 337 342 342 343 340 339 340 342 342 345 351 355 346 346 347 351 349 348 355 0
191 214 228 228 225 227 236 276 300 172 278 291 309 329 344 349 351 353 349 347 343 337 332 334 338 342 340 341 340 341 341 342 342 348 349 348 346 346 349 354 352 349 352 352
227 254 244 247 234 311 23 97 113 138 251 40 332 343 357 352 350 349 346 345 339 336 337 339 340 342 334 335 339 339 339 338 340 347 348 345 350 352 354 356 358 5 0 353
242 275 311 303 347 37 106 112 120 118 120 90 53 25 360 343 348 346 343 340 338 336 339 338 334 332 332 334 334 334 335 335 337 345 339 337 344 349 353 348 358 1 354 349
217 220 200 261 315 128 142 149 159 152 115 78 72 34 1 351 344 340 339 339 338 339 339 332 328 325 324 328 328 329 339 336 332 335 335 335 331 339 348 353 355 357 355 356
200 194 180 163 107 111 133 143 134 112 112 100 62 37 15 349 348 350 345 339 336 334 330 324 322 321 321 325 326 322 324 325 322 329 326 330 332 328 327 336 345 350 353 354
124 118 106 66 103 103 110 109 103 95 94 85 50 28 4 347 339 340 332 325 329 326 323 321 320 318 318 319 321 319 314 315 317 305 300 303 308 309 310 317 320 321 336 346
95 109 132 121 117 111 108 109 105 95 73 48 26 10 355 349 338 326 318 327 329 324 320 319 321 318 318 316 318 316 313 308 302 293 283 286 292 295 293 293 293 298 308 326
108 110 125 131 141 133 119 119 125 110 69 37 6 352 341 330 320 314 318 329 328 321 315 314 314 315 316 315 315 312 304 305 307 298 291 294 289 282 280 278 279 278 284 291
131 153 163 156 152 136 122 125 126 112 84 35 352 345 343 336 330 331 330 323 311 302 302 305 311 314 309 310 310 305 299 300 302 300 295 293 287 281 276 271 267 268 268 279
148 162 161 161 155 141 131 122 111 99 80 24 13 8 357 348 336 326 322 320 319 315 309 309 312 309 307 311 307 300 299 301 303 303 303 300 293 284 277 272 270 270 271 278
131 129 121 116 123 131 134 128 117 110 86 53 29 2 338 327 317 314 316 318 318 320 316 314 317 322 314 315 315 307 311 317 320 317 311 306 304 293 283 274 269 266 267 269
125 123 118 112 112 124 130 128 128 117 92 60 21 1 350 334 323 322 321 314 301 301 306 313 321 323 318 315 323 332 333 327 322 318 314 309 303 295 285 274 266 260 256 255
141 137 134 131 127 126 128 136 136 126 100 58 26 358 336 321 320 321 322 323 319 318 321 329 335 325 323 336 343 338 332 329 326 322 318 314 308 300 290 278 266 257 251 248
150 148 148 143 134 126 125 136 138 129 108 18 351 345 337 329 325 321 306 295 311 326 333 331 329 332 345 349 342 337 334 332 330 327 325 325 325 321 311 295 272 255 243 234
153 153 153 152 145 136 129 134 141 139 144 313 327 333 328 317 318 320 324 321 324 331 338 330 336 344 352 350 340 337 336 335 334 335 339 342 346 346 343 334 318 271 211 202
148 150 146 137 130 136 154 176 177 177 248 285 293 301 307 318 319 296 301 321 334 337 338 336 345 349 353 347 340 340 340 339 341 347 351 356 0 1 4 11 25 48 64 77
139 138 141 146 156 168 174 175 179 229 262 282 297 304 307 300 300 312 317 322 334 342 340 340 346 349 350 343 344 343 343 343 349 357 359 5 8 10 15 21 31 40 44 40
145 156 163 168 165 160 164 167 178 194 196 318 331 332 328 316 306 313 321 327 333 343 343 338 339 344 345 345 345 345 344 344 347 359 2 9 10 13 16 18 21 27 27 26
140 147 151 152 161 168 171 173 174 177 181 245 325 331 332 330 331 333 334 339 341 342 341 341 342 344 345 347 347 348 347 348 350 359 4 7 10 10 11 12 13 9 6 10
Height
1593 1594 1593 1592 1592 1591 1593 1596 1600 1598 1594 1587 1583 1579 1574 1568 1563 1558 1553 1548 1542 1537 1531 1525 1518 1512 1505 1499 1492 1485 1479 1471 1465 1458 1451 1445 1439 1433 1427 1420 1414 1407 1402 1398
1596 1592 1594 1595 1595 1594 1595 1596 1597 1596 1593 1585 1581 1576 1570 1565 1562 1557 1552 1548 1543 1538 1531 1525 1519 1512 1505 1498 1491 1485 1478 1472 1465 1458 1451 1444 1438 1433 1428 1423 1418 1413 1408 1404
1603 1600 1595 1602 1599 1597 1596 1594 1595 1596 1592 1583 1578 1573 1568 1564 1560 1557 1552 1547 1543 1538 1532 1526 1520 1513 1505 1498 1491 1485 1478 1472 1465 1458 1452 1445 1439 1434 1429 1424 1420 1416 1412 1408
1607 1605 1604 1604 1596 1595 1594 1592 1591 1590 1586 1581 1578 1572 1567 1563 1560 1555 1551 1546 1542 1537 1531 1525 1519 1512 1506 1499 1491 1484 1477 1471 1465 1459 1453 1446 1440 1435 1430 1425 1421 1417 1414 1411
1613 1612 1609 1600 1595 1593 1593 1592 1589 1587 1581 1578 1574 1569 1566 1562 1559 1555 1550 1546 1541 1536 1530 1524 1518 1511 1504 1497 1490 1483 1476 1470 1465 1459 1453 1447 1442 1436 1431 1427 1422 1418 1415 1412
1612 1609 1607 1598 1592 1589 1591 1592 1586 1583 1580 1576 1571 1566 1564 1561 1556 1552 1548 1543 1538 1533 1527 1522 1515 1509 1502 1495 1488 1482 1476 1470 1465 1459 1454 1448 1443 1438 1433 1429 1425 1420 1417 1414
1612 1614 1603 1593 1589 1589 1596 1594 1584 1580 1577 1574 1571 1569 1564 1559 1555 1550 1545 1540 1535 1530 1525 1519 1514 1507 1501 1494 1488 1482 1476 1470 1464 1459 1454 1449 1444 1439 1434 1430 1426 1422 1419 1416
1609 1611 1604 1587 1587 1589 1588 1582 1580 1577 1575 1572 1569 1565 1561 1557 1553 1547 1542 1537 1532 1527 1523 1517 1512 1505 1499 1494 1488 1482 1476 1470 1464 1459 1454 1449 1444 1439 1435 1431 1427 1423 1420 1418
1593 1593 1585 1584 1584 1584 1582 1579 1577 1575 1572 1570 1567 1563 1559 1554 1550 1546 1541 1536 1530 1525 1520 1515 1510 1504 1499 1494 1488 1482 1476 1470 1465 1460 1455 1450 1444 1439 1435 1432 1428 1424 1422 1419
1584 1582 1581 1581 1581 1580 1579 1577 1574 1572 1570 1567 1564 1560 1556 1552 1547 1543 1539 1534 1529 1523 1518 1513 1508 1503 1499 1493 1487 1482 1476 1470 1466 1461 1456 1451 1447 1442 1438 1434 1430 1426 1423 1420
1582 1580 1579 1579 1579 1578 1576 1574 1572 1569 1566 1563 1560 1557 1554 1550 1545 1542 1538 1533 1528 1522 1517 1512 1507 1503 1498 1493 1487 1481 1476 1470 1466 1461 1456 1452 1448 1444 1440 1437 1434 1429 1425 1422
1580 1577 1578 1578 1577 1575 1573 1571 1569 1566 1563 1561 1558 1555 1551 1548 1544 1540 1535 1531 1526 1521 1516 1511 1506 1502 1497 1492 1486 1481 1475 1470 1465 1460 1456 1451 1447 1443 1440 1437 1433 1429 1426 1422
1574 1574 1575 1575 1573 1571 1569 1567 1565 1564 1561 1559 1556 1552 1549 1545 1542 1538 1533 1528 1524 1519 1515 1510 1505 1500 1495 1490 1485 1480 1475 1469 1464 1459 1454 1450 1445 1441 1438 1435 1432 1428 1425 1421
1572 1572 1572 1571 1570 1568 1566 1564 1563 1561 1559 1557 1554 1551 1547 1544 1540 1536 1531 1527 1522 1518 1513 1508 1503 1498 1494 1489 1483 1478 1473 1467 1462 1457 1452 1447 1443 1439 1436 1432 1429 1426 1423 1421
1569 1569 1569 1567 1566 1564 1563 1562 1560 1559 1558 1555 1553 1550 1546 1542 1538 1534 1530 1526 1521 1517 1512 1507 1501 1496 1491 1486 1480 1475 1469 1463 1458 1453 1448 1444 1439 1435 1432 1429 1427 1424 1422 1419
1567 1567 1566 1564 1563 1561 1560 1559 1558 1557 1556 1554 1552 1549 1546 1542 1538 1534 1530 1525 1520 1515 1510 1504 1499 1494 1488 1482 1476 1470 1464 1459 1454 1448 1442 1438 1433 1430 1426 1424 1422 1420 1418 1417
1564 1563 1563 1561 1560 1559 1558 1557 1556 1555 1555 1554 1552 1548 1545 1542 1538 1534 1529 1525 1520 1515 1509 1503 1497 1491 1485 1479 1473 1466 1459 1451 1446 1441 1435 1430 1425 1422 1419 1417 1416 1414 1413 1412
1559 1559 1558 1557 1556 1556 1556 1556 1555 1555 1554 1553 1551 1548 1545 1542 1538 1534 1529 1524 1519 1514 1509 1502 1494 1487 1481 1475 1468 1460 1453 1446 1440 1434 1428 1423 1418 1415 1412 1410 1408 1407 1406 1406
1554 1554 1554 1554 1554 1554 1554 1554 1554 1554 1553 1552 1550 1547 1544 1542 1539 1535 1530 1524 1517 1510 1505 1498 1491 1485 1478 1471 1464 1456 1450 1443 1436 1429 1422 1417 1412 1408 1405 1402 1400 1399 1399 1399
1551 1552 1552 1552 1552 1553 1553 1553 1553 1553 1552 1551 1549 1547 1545 1542 1539 1535 1530 1524 1518 1511 1504 1496 1489 1483 1476 1468 1463 1456 1448 1440 1432 1425 1418 1412 1406 1401 1397 1394 1392 1391 1391 1392
1549 1550 1550 1551 1551 1552 1553 1553 1553 1553 1552 1551 1549 1547 1544 1542 1540 1535 1529 1523 1518 1511 1504 1497 1490 1483 1475 1470 1463 1455 1447 1439 1431 1424 1416 1409 1402 1396 1390 1386 1384 1383 1384 1385
1547 1547 1548 1549 1550 1551 1552 1553 1553 1552 1552 1551 1549 1547 1544 1542 1540 1536 1531 1525 1518 1511 1504 1498 1491 1484 1479 1472 1464 1455 1447 1439 1432 1424 1416 1408 1400 1392 1385 1380 1377 1377 1378 1379
1545 1545 1546 1547 1549 1550 1551 1552 1552 1552 1551 1550 1549 1547 1545 1543 1539 1535 1530 1525 1518 1512 1507 1500 1493 1487 1480 1473 1464 1456 1448 1440 1433 1425 1417 1409 1399 1390 1383 1378 1374 1374 1375 1377
1543 1544 1545 1546 1547 1548 1549 1551 1551 1551 1550 1550 1548 1547 1545 1543 1541 1537 1532 1527 1521 1515 1509 1502 1496 1489 1482 1474 1465 1458 1450 1442 1435 1429 1421 1412 1403 1394 1387 1381 1377 1376 1377 1378
1540 1541 1543 1544 1546 1547 1548 1549 1550 1550 1550 1549 1548 1547 1545 1543 1541 1538 1534 1529 1523 1517 1511 1504 1498 1491 1483 1476 1468 1461 1454 1446 1441 1434 1425 1417 1410 1402 1395 1389 1386 1383 1382 1382
1537 1538 1540 1542 1544 1545 1547 1548 1549 1549 1549 1549 1548 1547 1546 1544 1542 1539 1535 1530 1525 1519 1512 1506 1499 1493 1485 1479 1472 1465 1458 1450 1444 1438 1431 1423 1417 1410 1404 1399 1395 1392 1389 1388
1534 1535 1537 1539 1541 1543 1545 1546 1547 1548 1548 1549 1548 1547 1546 1545 1543 1540 1536 1531 1526 1520 1514 1508 1501 1495 1488 1482 1476 1469 1462 1455 1448 1443 1437 1429 1422 1417 1412 1407 1403 1400 1397 1394